Weather in Pokrovka

Russia / Orenburg Oblast     51°59′23″N   53°52′28″E
temp.,
°C
wind,
m/s
gust,
m/s
humid.,
%
clouds,
%
prec.,
mm/h
press.,
hPa
HPBL,
m
4 august, wed
wed423:00+28sw112615 0.0 101111
02:00+27ese112852 0.0 101211
05:00+27se222892 0.0 101216
08:00+30s242595 0.0 1012125
11:00+37ssw561412 0.0 10121070
14:00+39sw561035 0.0 10104612
17:00+39wsw479100 0.0 10094407
20:00+36ssw6101295 0.0 1008377
5 august, thu
thu523:00+29s35207 0.0 100862
02:00+24sw3327100 0.0 100940
05:00+23nw3549100 0.0 100973
08:00+25nnw5753100 0.0 1010326
11:00+30nnw7940100 0.0 10111012
14:00+31n4431100 0.0 10101032
17:00+31nw443363 0.0 10101201
20:00+29nw7739100 0.0 1009806
6 august, fri
fri623:00+23n61356100 0.3 1011372
02:00+20n412600 0.0 1012334
05:00+17nnw366774 0.0 1013122
08:00+20n58625 0.0 1014327
11:00+26nne563858 0.0 10151672
14:00+29n6627100 0.0 10142248
17:00+29nnw45245 0.0 10142267
20:00+27n57255 0.0 1014482
7 august, sat
sat723:00+21nne3335100 0.0 101534
02:00+19ene374152 0.0 1015100
05:00+17ne225699 0.0 101622
08:00+21ne354616 0.0 1018197
11:00+27ne44281 0.0 10171419
14:00+30nne55225 0.0 10161881
17:00+31nne55225 0.0 10162140
20:00+29ne472415 0.0 1016350
8 august, sun
sun823:00+22ene41035100 0.0 1017157
02:00+20e494088 0.0 1018139
05:00+19e3745100 0.0 1019115
08:00+23e593833 0.0 1019296
11:00+29ese672596 0.0 1018999
14:00+33ese552167 0.0 10172051
17:00+34se4419100 0.0 10162645
20:00+30se3424100 0.0 101551